Terminal Aerodrome Forecast
Issued by NWS Caribou, ME

Home | Current Version | Previous Version | Text Only | Print | Product List | Glossary On
Versions: 1 2 3 4 5 6 7 8 9 10 11 12 13 14 15 16 17 18
000
FTUS41 KCAR 041212 AAA
TAFCAR
TAF AMD
KCAR 041212Z 0412/0512 18006KT P6SM SCT004
      TEMPO 0412/0413 3SM BR BKN006
     FM041300 21007KT P6SM BKN060
     FM041800 23009KT P6SM VCTS BKN070CB
     FM042100 22008KT 3SM +TSRA BKN050CB
     FM050000 18005KT P6SM BKN150=

USA.gov is the U.S. government's official web portal to all federal, state and local government web resources and services.